STARLINK-5955 (56342 NORAD) Tracking and Keplerian Element Data

This shows tracking and keplerian element data for the satellite.

Feedback or suggestion? Click here.




ElementValue
Catalog56342
NameSTARLINK-5955
Epoch Orbit181
Epoch Day127.00001157
Epoch Year2023
RAAN126.4738
Inclination97.6632
Eccentricity0.0001455
Argument of Perigee93.5771
Mean Anonmoly235.9542
Mean Motion15.6816172
Decay Rate-0.00868116
L11 56342U 23058AB 23127.00001157 -.00868116 00000+0 -86640-2 0 9994
L22 56342 97.6632 126.4738 0001455 93.5771 235.9542 15.68161720 1810



Live tracking and technical data element details for STARLINK-5955 (NORAD 56342). STARLINK-5955 can be tracked NOW for your location showing map with azimuth and elevation plus other details from your city location.







IsCatalogInMostPopularTable: catalog: 56342, numindb: 4
Update: records affected: 1



GetName: 56342 STARLINK-5955

Hit Count: updated at: Wed, 07 Jun 2023 08:13:13 GMT